• Em Portugal
  • Lista de países
  • Para 7 dias
  • Temperatura da água
  • Mapas de satélite
  • Mapa do tempo
  • Widgets de tempo
  • user-avatar
    Iniciar Sessão

    Previsão horária em Florianópolis

    Hoje, 18 Agosto, Sexta-feira

    Tempo Temperatura Precipitação Vento Pressão Humidade
    00:00 +17°C° 0 mm 3 m/s 765 mmHg 96%
    01:00 +17°C° 0 mm 3 m/s 764 mmHg 96%
    02:00 +17°C° 0 mm 3 m/s 764 mmHg 96%
    03:00 +16°C° 0 mm 3 m/s 764 mmHg 97%
    04:00 +16°C° 0 mm 3 m/s 764 mmHg 97%
    05:00 +14°C° 0 mm 3 m/s 764 mmHg 97%
    06:00 +14°C° 0 mm 3 m/s 764 mmHg 98%
    07:00 +16°C° 0 mm 3 m/s 764 mmHg 91%
    08:00 +18°C° 0 mm 3 m/s 764 mmHg 85%
    09:00 +20°C° 0 mm 3 m/s 764 mmHg 78%
    10:00 +22°C° 0 mm 3 m/s 764 mmHg 67%
    11:00 +26°C° 0 mm 3 m/s 764 mmHg 56%
    12:00 +28°C° 0 mm 3 m/s 763 mmHg 45%
    13:00 +28°C° 0 mm 4 m/s 763 mmHg 47%
    14:00 +28°C° 0 mm 4 m/s 763 mmHg 49%
    15:00 +28°C° 0 mm 4 m/s 762 mmHg 51%
    16:00 +25°C° 0 mm 4 m/s 762 mmHg 63%
    17:00 +22°C° 0 mm 4 m/s 762 mmHg 76%
    18:00 +20°C° 0 mm 4 m/s 762 mmHg 88%
    19:00 +19°C° 0 mm 4 m/s 762 mmHg 91%
    20:00 +19°C° 0 mm 4 m/s 762 mmHg 93%
    21:00 +18°C° 0 mm 4 m/s 763 mmHg 96%
    22:00 +19°C° 0,1 mm 4 m/s 763 mmHg 96%
    23:00 +19°C° 0,1 mm 4 m/s 763 mmHg 95%

    Amanhã, 19 Agosto, Sábado

    Tempo Temperatura Precipitação Vento Pressão Humidade
    00:00 +19°C° 0,1 mm 4 m/s 763 mmHg 95%
    01:00 +19°C° 0,2 mm 4 m/s 762 mmHg 95%
    02:00 +19°C° 0,2 mm 4 m/s 762 mmHg 95%
    03:00 +19°C° 0,2 mm 3 m/s 761 mmHg 96%
    04:00 +20°C° 0,1 mm 3 m/s 761 mmHg 96%
    05:00 +20°C° 0,1 mm 3 m/s 761 mmHg 96%
    06:00 +20°C° 0,1 mm 3 m/s 761 mmHg 96%
    07:00 +20°C° 0,2 mm 3 m/s 761 mmHg 95%
    08:00 +20°C° 0,2 mm 3 m/s 761 mmHg 95%
    09:00 +21°C° 0,2 mm 3 m/s 761 mmHg 94%
    10:00 +21°C° 0,1 mm 3 m/s 760 mmHg 93%
    11:00 +22°C° 0,1 mm 4 m/s 760 mmHg 91%
    12:00 +22°C° 0,1 mm 4 m/s 760 mmHg 90%
    13:00 +23°C° 0 mm 4 m/s 759 mmHg 87%
    14:00 +25°C° 0 mm 4 m/s 758 mmHg 84%
    15:00 +25°C° 0 mm 4 m/s 757 mmHg 81%
    16:00 +23°C° 0 mm 4 m/s 757 mmHg 85%
    17:00 +23°C° 0 mm 4 m/s 757 mmHg 89%
    18:00 +22°C° 0 mm 4 m/s 757 mmHg 93%
    19:00 +22°C° 0,7 mm 4 m/s 757 mmHg 94%
    20:00 +22°C° 0,7 mm 4 m/s 758 mmHg 95%
    21:00 +21°C° 0,7 mm 3 m/s 758 mmHg 96%
    22:00 +21°C° 0 mm 3 m/s 758 mmHg 96%
    23:00 +22°C° 0 mm 3 m/s 758 mmHg 95%

    Depois de amanhã, 20 Agosto, Domingo

    Tempo Temperatura Precipitação Vento Pressão Humidade
    00:00 +22°C° 0 mm 3 m/s 758 mmHg 95%
    01:00 +21°C° 0,2 mm 3 m/s 758 mmHg 95%
    02:00 +21°C° 0,2 mm 3 m/s 758 mmHg 96%
    03:00 +21°C° 0,2 mm 3 m/s 758 mmHg 96%
    04:00 +21°C° 0,3 mm 3 m/s 758 mmHg 97%
    05:00 +20°C° 0,3 mm 3 m/s 758 mmHg 98%
    06:00 +20°C° 0,3 mm 3 m/s 758 mmHg 98%
    07:00 +20°C° 1,9 mm 4 m/s 759 mmHg 98%
    08:00 +20°C° 1,9 mm 5 m/s 760 mmHg 98%
    09:00 +20°C° 1,9 mm 6 m/s 760 mmHg 98%
    10:00 +18°C° 1,5 mm 7 m/s 761 mmHg 97%
    11:00 +18°C° 1,5 mm 8 m/s 761 mmHg 97%
    12:00 +17°C° 1,5 mm 9 m/s 762 mmHg 96%
    13:00 +16°C° 0,6 mm 9 m/s 762 mmHg 96%
    14:00 +16°C° 0,6 mm 9 m/s 762 mmHg 96%
    15:00 +16°C° 0,6 mm 9 m/s 762 mmHg 95%
    16:00 +15°C° 0,1 mm 9 m/s 763 mmHg 93%
    17:00 +15°C° 0,1 mm 9 m/s 764 mmHg 91%
    18:00 +13°C° 0,1 mm 9 m/s 765 mmHg 88%
    19:00 +13°C° 0 mm 9 m/s 766 mmHg 87%
    20:00 +12°C° 0 mm 9 m/s 767 mmHg 85%
    21:00 +11°C° 0 mm 9 m/s 768 mmHg 84%
    22:00 +10°C° 0 mm 8 m/s 768 mmHg 85%
    23:00 +10°C° 0 mm 8 m/s 769 mmHg 87%

    21 Agosto, Segunda-feira

    Tempo Temperatura Precipitação Vento Pressão Humidade
    00:00 +9°C° 0 mm 8 m/s 769 mmHg 88%
    01:00 +9°C° 0 mm 7 m/s 769 mmHg 87%
    02:00 +8°C° 0 mm 7 m/s 769 mmHg 87%
    03:00 +8°C° 0 mm 6 m/s 769 mmHg 86%
    04:00 +8°C° 0 mm 6 m/s 770 mmHg 86%
    05:00 +7°C° 0 mm 6 m/s 770 mmHg 86%
    06:00 +7°C° 0 mm 6 m/s 770 mmHg 87%
    07:00 +9°C° 0 mm 5 m/s 771 mmHg 82%
    08:00 +12°C° 0 mm 5 m/s 771 mmHg 77%
    09:00 +13°C° 0 mm 5 m/s 772 mmHg 72%
    10:00 +15°C° 0 mm 5 m/s 772 mmHg 66%
    11:00 +17°C° 0 mm 5 m/s 772 mmHg 61%
    12:00 +20°C° 0 mm 5 m/s 772 mmHg 55%
    13:00 +20°C° 0 mm 5 m/s 771 mmHg 56%
    14:00 +20°C° 0 mm 5 m/s 771 mmHg 57%
    15:00 +20°C° 0 mm 5 m/s 771 mmHg 58%
    16:00 +18°C° 0 mm 4 m/s 771 mmHg 68%
    17:00 +15°C° 0 mm 4 m/s 771 mmHg 78%
    18:00 +14°C° 0 mm 3 m/s 772 mmHg 88%
    19:00 +13°C° 0,1 mm 3 m/s 772 mmHg 91%
    20:00 +12°C° 0,1 mm 3 m/s 772 mmHg 94%
    21:00 +11°C° 0,1 mm 3 m/s 773 mmHg 97%
    22:00 +11°C° 0,1 mm 3 m/s 773 mmHg 98%
    23:00 +11°C° 0,1 mm 3 m/s 772 mmHg 98%

    22 Agosto, Terça-feira

    Tempo Temperatura Precipitação Vento Pressão Humidade
    00:00 +11°C° 0,1 mm 3 m/s 772 mmHg 98%
    01:00 +12°C° 0,1 mm 3 m/s 771 mmHg 98%
    02:00 +12°C° 0,1 mm 3 m/s 771 mmHg 98%
    03:00 +13°C° 0,1 mm 3 m/s 770 mmHg 98%
    04:00 +13°C° 0,1 mm 3 m/s 770 mmHg 98%
    05:00 +13°C° 0,1 mm 3 m/s 770 mmHg 98%
    06:00 +14°C° 0,1 mm 4 m/s 770 mmHg 97%
    07:00 +14°C° 0,1 mm 4 m/s 771 mmHg 94%
    08:00 +15°C° 0,1 mm 4 m/s 771 mmHg 90%
    09:00 +17°C° 0,1 mm 4 m/s 771 mmHg 87%
    10:00 +18°C° 0,1 mm 4 m/s 771 mmHg 80%
    11:00 +19°C° 0,1 mm 4 m/s 770 mmHg 72%
    12:00 +20°C° 0,1 mm 5 m/s 770 mmHg 65%
    13:00 +20°C° 0,1 mm 5 m/s 769 mmHg 64%
    14:00 +20°C° 0,1 mm 5 m/s 768 mmHg 62%
    15:00 +21°C° 0,1 mm 6 m/s 768 mmHg 60%
    16:00 +19°C° 0 mm 6 m/s 767 mmHg 67%
    17:00 +17°C° 0 mm 6 m/s 767 mmHg 73%
    18:00 +16°C° 0 mm 5 m/s 767 mmHg 80%
    19:00 +16°C° 0,1 mm 5 m/s 767 mmHg 84%
    20:00 +16°C° 0,1 mm 5 m/s 767 mmHg 89%
    21:00 +15°C° 0,1 mm 5 m/s 768 mmHg 94%
    22:00 +16°C° 0,1 mm 5 m/s 767 mmHg 94%
    23:00 +16°C° 0,1 mm 5 m/s 767 mmHg 95%

    23 Agosto, Quarta-feira

    Tempo Temperatura Precipitação Vento Pressão Humidade
    00:00 +16°C° 0,1 mm 5 m/s 767 mmHg 95%
    01:00 +16°C° 0,1 mm 5 m/s 767 mmHg 95%
    02:00 +16°C° 0,1 mm 5 m/s 766 mmHg 95%
    03:00 +16°C° 0,1 mm 6 m/s 766 mmHg 96%
    04:00 +16°C° 0,2 mm 6 m/s 766 mmHg 95%
    05:00 +17°C° 0,2 mm 6 m/s 766 mmHg 95%
    06:00 +17°C° 0,2 mm 6 m/s 765 mmHg 95%
    07:00 +17°C° 0,2 mm 6 m/s 766 mmHg 94%
    08:00 +19°C° 0,2 mm 6 m/s 766 mmHg 93%
    09:00 +19°C° 0,2 mm 6 m/s 766 mmHg 92%
    10:00 +20°C° 0,1 mm 6 m/s 766 mmHg 92%
    11:00 +20°C° 0,1 mm 6 m/s 766 mmHg 91%
    12:00 +20°C° 0,1 mm 6 m/s 765 mmHg 91%
    13:00 +21°C° 0 mm 6 m/s 765 mmHg 89%
    14:00 +21°C° 0 mm 6 m/s 764 mmHg 88%
    15:00 +22°C° 0 mm 6 m/s 763 mmHg 87%
    16:00 +21°C° 0 mm 6 m/s 764 mmHg 89%
    17:00 +21°C° 0 mm 6 m/s 764 mmHg 91%
    18:00 +20°C° 0 mm 5 m/s 764 mmHg 94%
    19:00 +20°C° 0 mm 5 m/s 764 mmHg 94%
    20:00 +20°C° 0 mm 5 m/s 765 mmHg 95%
    21:00 +19°C° 0 mm 5 m/s 765 mmHg 96%
    22:00 +19°C° 0 mm 5 m/s 765 mmHg 96%
    23:00 +19°C° 0 mm 5 m/s 765 mmHg 96%
    Mostrar mais